Home   Weather   Mattersburg   Past weeks

Flag for Austria Past Weather in Mattersburg, Burgenland, Austria — Yesterday and Last 2 Weeks

Now
57 °F

Overcast.


Feels Like: 55 °F
Forecast: 42 / 48 °F
Wind: 7 mph from Northwest

Location: Eisenstadt

Current Time: Apr 26, 2017 at 8:16:25 pm

Latest Report: Apr 26, 2017 at 7:00 pm


Visibility: 9 mi

Pressure: 29.76 "Hg

Humidity: 66%

Dew Point: 45 °F

Location of MattersburgLocation

Past Weather in Mattersburg — Graph

°F

Mattersburg Temperature Yesterday

Maximum temperature yesterday: 75 °F (at 3:00 pm)
Minimum temperature yesterday: 41 °F (at 6:00 am)
Average temperature yesterday: 58 °F

High & Low Weather Summary for the Past Weeks

 TemperatureHumidityPressure
High75 °F (Apr 25, 3:00 pm)95% (Apr 19, 9:00 pm)30.48 "Hg (Apr 19, 9:00 pm)
Low31 °F (Apr 21, 6:00 am)30% (Apr 25, 2:00 pm)29.65 "Hg (Apr 25, 7:00 pm)
Average48 °F65%30.03 "Hg
* Reported Apr 11 6:00 pm — Apr 26 6:00 pm, Mattersburg, Weather by CustomWeather, © 2017

Note: Actual official high and low records may vary slightly from our data, if they occured in-between our weather recording intervals... More about our weather records

Advertising

Mattersburg Weather History for the Previous 24 Hours

Scroll right to see more
 ConditionsComfort  
Time TempWeatherWind HumidityBarometerVisibility
6:00 pm
Wed, Apr 26
65 °FMild.6 mph45%29.73 "HgN/A
5:00 pm66 °FOvercast.8 mph47%29.71 "Hg9 mi
4:00 pm66 °FMild.6 mph47%29.70 "HgN/A
3:00 pm66 °FMild.7 mph46%29.70 "HgN/A
2:00 pm65 °FOvercast.5 mph46%29.69 "Hg9 mi
1:00 pm63 °FMild.5 mph52%29.69 "HgN/A
12:00 pm62 °FRefreshingly cool.5 mph53%29.70 "HgN/A
11:00 am60 °FOvercast.2 mph59%29.70 "Hg9 mi
10:00 am59 °FCool.1 mph63%29.70 "HgN/A
9:00 am55 °FCool.1 mph77%29.71 "HgN/A
8:00 am52 °FOvercast.1 mph82%29.71 "Hg9 mi
7:00 am51 °FOvercast.1 mph84%29.71 "Hg9 mi
6:00 am52 °FOvercast.2 mph79%29.70 "Hg12 mi
5:00 am51 °FCool.2 mph80%29.71 "HgN/A
4:00 am51 °FCool.2 mph82%29.71 "HgN/A
3:00 am51 °FCool.2 mph81%29.74 "HgN/A
2:00 am54 °FPassing clouds.No wind69%29.75 "Hg12 mi
1:00 am53 °FCool.1 mph73%29.77 "HgN/A
12:00 am56 °FCool.6 mph64%29.74 "HgN/A
11:00 pm
Tue, Apr 25
57 °FPassing clouds.6 mph62%29.73 "Hg12 mi
10:00 pm61 °FRefreshingly cool.3 mph51%29.70 "HgN/A
9:00 pm62 °FRefreshingly cool.3 mph50%29.67 "HgN/A
8:00 pm65 °FPassing clouds.2 mph43%29.65 "Hg12 mi
Weather by CustomWeather, © 2017

See weather overviewHow to use our weather pages